When you browse on this site, cookies collect data to enhance your experience and personalize the content and advertising you see.
Visit our Privacy Policy to learn more. By continuing to use the site, you agree to this use of cookies and data.
  • In Austria
  • List of Countries
  • For 7 days
  • Water Temperature
  • Satellite Maps
  • Weather Map
  • News
  • Weather Widgets
  • user-avatar
    Login

    Hourly Weather Rjukan

    Today, 25 April, Thursday

    Time Temperature Precipitation Wind Pressure Humidity
    00:00 +3°C° 0.1 mm 3 mps 671 mmHg 75%
    01:00 +3°C° 0 mm 2 mps 671 mmHg 84%
    02:00 +3°C° 0 mm 2 mps 671 mmHg 85%
    03:00 +2°C° 0 mm 2 mps 671 mmHg 86%
    04:00 +3°C° 0 mm 1 mps 670 mmHg 86%
    05:00 +2°C° 0 mm 2 mps 671 mmHg 87%
    06:00 +3°C° 0 mm 2 mps 671 mmHg 87%
    07:00 +3°C° 0 mm 2 mps 671 mmHg 89%
    08:00 +3°C° 0.1 mm 2 mps 671 mmHg 90%
    09:00 +3°C° 0.1 mm 2 mps 671 mmHg 91%
    10:00 +4°C° 0.1 mm 2 mps 671 mmHg 92%
    11:00 +4°C° 0.1 mm 2 mps 671 mmHg 93%
    12:00 +3°C° 0.1 mm 3 mps 671 mmHg 93%
    13:00 +3°C° 0.1 mm 3 mps 671 mmHg 93%
    14:00 +3°C° 0.1 mm 3 mps 671 mmHg 93%
    15:00 +4°C° 0.1 mm 2 mps 671 mmHg 93%
    16:00 +4°C° 0.1 mm 2 mps 671 mmHg 93%
    17:00 +4°C° 0.5 mm 2 mps 671 mmHg 94%
    18:00 +4°C° 0.5 mm 2 mps 671 mmHg 94%
    19:00 +4°C° 0.5 mm 2 mps 671 mmHg 95%
    20:00 +4°C° 0.6 mm 2 mps 671 mmHg 95%
    21:00 +4°C° 0.6 mm 2 mps 671 mmHg 96%
    22:00 +4°C° 0.6 mm 2 mps 672 mmHg 96%
    23:00 +4°C° 0.1 mm 2 mps 672 mmHg 97%

    Tomorrow, 26 April, Friday

    Time Temperature Precipitation Wind Pressure Humidity
    00:00 +4°C° 0.1 mm 2 mps 672 mmHg 97%
    01:00 +4°C° 0.1 mm 2 mps 672 mmHg 98%
    02:00 +4°C° 0.1 mm 2 mps 672 mmHg 98%
    03:00 +4°C° 0.1 mm 2 mps 672 mmHg 98%
    04:00 +4°C° 0.1 mm 2 mps 672 mmHg 98%
    05:00 +4°C° 0 mm 2 mps 672 mmHg 98%
    06:00 +4°C° 0 mm 2 mps 672 mmHg 98%
    07:00 +5°C° 0 mm 2 mps 672 mmHg 98%
    08:00 +5°C° 0 mm 2 mps 672 mmHg 96%
    09:00 +6°C° 0 mm 2 mps 672 mmHg 93%
    10:00 +7°C° 0 mm 2 mps 672 mmHg 90%
    11:00 +7°C° 0 mm 2 mps 672 mmHg 88%
    12:00 +8°C° 0 mm 2 mps 672 mmHg 86%
    13:00 +8°C° 0 mm 3 mps 672 mmHg 84%
    14:00 +8°C° 0 mm 3 mps 672 mmHg 84%
    15:00 +8°C° 0 mm 3 mps 671 mmHg 84%
    16:00 +8°C° 0 mm 3 mps 671 mmHg 85%
    17:00 +8°C° 0.1 mm 2 mps 671 mmHg 87%
    18:00 +7°C° 0.1 mm 2 mps 670 mmHg 90%
    19:00 +7°C° 0.1 mm 2 mps 670 mmHg 93%
    20:00 +6°C° 0.1 mm 2 mps 670 mmHg 94%
    21:00 +6°C° 0.1 mm 2 mps 670 mmHg 95%
    22:00 +6°C° 0.1 mm 2 mps 669 mmHg 96%
    23:00 +6°C° 0.2 mm 2 mps 669 mmHg 96%

    Day after tomorrow, 27 April, Saturday

    Time Temperature Precipitation Wind Pressure Humidity
    00:00 +6°C° 0.2 mm 2 mps 669 mmHg 97%
    01:00 +6°C° 0.2 mm 2 mps 669 mmHg 97%
    02:00 +6°C° 0.1 mm 2 mps 668 mmHg 97%
    03:00 +6°C° 0.1 mm 2 mps 668 mmHg 98%
    04:00 +6°C° 0.1 mm 2 mps 668 mmHg 98%
    05:00 +6°C° 0.1 mm 2 mps 668 mmHg 98%
    06:00 +6°C° 0.1 mm 2 mps 668 mmHg 98%
    07:00 +6°C° 0.1 mm 2 mps 668 mmHg 98%
    08:00 +5°C° 0.2 mm 3 mps 668 mmHg 98%
    09:00 +5°C° 0.2 mm 3 mps 668 mmHg 97%
    10:00 +5°C° 0.2 mm 3 mps 669 mmHg 97%
    11:00 +5°C° 0.4 mm 3 mps 669 mmHg 97%
    12:00 +5°C° 0.4 mm 3 mps 669 mmHg 97%
    13:00 +5°C° 0.4 mm 3 mps 668 mmHg 97%
    14:00 +5°C° 0.8 mm 3 mps 668 mmHg 96%
    15:00 +5°C° 0.8 mm 3 mps 668 mmHg 96%
    16:00 +7°C° 0.8 mm 3 mps 668 mmHg 95%
    17:00 +6°C° 0.7 mm 4 mps 669 mmHg 95%
    18:00 +6°C° 0.7 mm 4 mps 669 mmHg 96%
    19:00 +6°C° 0.7 mm 5 mps 669 mmHg 96%
    20:00 +6°C° 1 mm 5 mps 670 mmHg 97%
    21:00 +6°C° 1 mm 5 mps 670 mmHg 97%
    22:00 +6°C° 1 mm 5 mps 671 mmHg 97%
    23:00 +6°C° 0.8 mm 5 mps 671 mmHg 95%

    28 April, Sunday

    Time Temperature Precipitation Wind Pressure Humidity
    00:00 +4°C° 0.8 mm 6 mps 672 mmHg 94%
    01:00 +4°C° 0.8 mm 6 mps 672 mmHg 92%
    02:00 +3°C° 0.5 mm 5 mps 673 mmHg 93%
    03:00 +4°C° 0.5 mm 4 mps 673 mmHg 94%
    04:00 +3°C° 0.5 mm 3 mps 673 mmHg 95%
    05:00 +3°C° 0.1 mm 3 mps 674 mmHg 93%
    06:00 +4°C° 0.1 mm 3 mps 674 mmHg 91%
    07:00 +4°C° 0.1 mm 3 mps 675 mmHg 89%
    08:00 +5°C° 0 mm 4 mps 676 mmHg 82%
    09:00 +6°C° 0 mm 4 mps 676 mmHg 75%
    10:00 +7°C° 0 mm 5 mps 677 mmHg 68%
    11:00 +8°C° 0 mm 5 mps 677 mmHg 66%
    12:00 +8°C° 0 mm 6 mps 677 mmHg 65%
    13:00 +9°C° 0 mm 6 mps 678 mmHg 64%
    14:00 +9°C° 0 mm 6 mps 678 mmHg 63%
    15:00 +9°C° 0 mm 6 mps 678 mmHg 62%
    16:00 +9°C° 0 mm 5 mps 678 mmHg 61%
    17:00 +9°C° 0 mm 5 mps 678 mmHg 62%
    18:00 +8°C° 0 mm 4 mps 679 mmHg 64%
    19:00 +8°C° 0 mm 4 mps 679 mmHg 66%
    20:00 +8°C° 0 mm 3 mps 679 mmHg 71%
    21:00 +7°C° 0 mm 2 mps 680 mmHg 75%
    22:00 +6°C° 0 mm 1 mps 680 mmHg 80%
    23:00 +6°C° 0 mm 1 mps 680 mmHg 83%

    29 April, Monday

    Time Temperature Precipitation Wind Pressure Humidity
    00:00 +5°C° 0 mm 1 mps 680 mmHg 86%
    01:00 +4°C° 0 mm 1 mps 680 mmHg 89%
    02:00 +2°C° 0 mm 0 mps 680 mmHg 90%
    03:00 +2°C° 0 mm 0 mps 680 mmHg 91%
    04:00 +1°C° 0 mm 0 mps 680 mmHg 91%
    05:00 +3°C° 0 mm 0 mps 681 mmHg 87%
    06:00 +5°C° 0 mm 1 mps 681 mmHg 82%
    07:00 +6°C° 0 mm 1 mps 682 mmHg 77%
    08:00 +8°C° 0 mm 1 mps 682 mmHg 70%
    09:00 +9°C° 0 mm 1 mps 682 mmHg 63%
    10:00 +11°C° 0 mm 1 mps 682 mmHg 57%
    11:00 +12°C° 0 mm 1 mps 682 mmHg 53%
    12:00 +13°C° 0 mm 1 mps 682 mmHg 50%
    13:00 +14°C° 0 mm 1 mps 682 mmHg 47%
    14:00 +14°C° 0 mm 2 mps 682 mmHg 47%
    15:00 +14°C° 0 mm 2 mps 682 mmHg 47%
    16:00 +14°C° 0 mm 3 mps 682 mmHg 47%
    17:00 +14°C° 0 mm 2 mps 681 mmHg 50%
    18:00 +14°C° 0 mm 2 mps 681 mmHg 54%
    19:00 +13°C° 0 mm 2 mps 681 mmHg 58%
    20:00 +12°C° 0 mm 1 mps 681 mmHg 63%
    21:00 +10°C° 0 mm 1 mps 680 mmHg 69%
    22:00 +9°C° 0 mm 1 mps 680 mmHg 75%
    23:00 +9°C° 0 mm 1 mps 680 mmHg 76%

    30 April, Tuesday

    Time Temperature Precipitation Wind Pressure Humidity
    00:00 +9°C° 0 mm 1 mps 680 mmHg 77%
    01:00 +8°C° 0 mm 2 mps 680 mmHg 78%
    02:00 +7°C° 0 mm 2 mps 680 mmHg 80%
    03:00 +7°C° 0 mm 2 mps 680 mmHg 81%
    04:00 +6°C° 0 mm 2 mps 680 mmHg 83%
    05:00 +7°C° 0 mm 2 mps 680 mmHg 79%
    06:00 +8°C° 0 mm 2 mps 680 mmHg 74%
    07:00 +9°C° 0 mm 2 mps 680 mmHg 69%
    08:00 +11°C° 0 mm 1 mps 680 mmHg 63%
    09:00 +12°C° 0 mm 1 mps 681 mmHg 57%
    10:00 +13°C° 0 mm 1 mps 681 mmHg 51%
    11:00 +14°C° 0 mm 1 mps 681 mmHg 48%
    12:00 +15°C° 0 mm 1 mps 681 mmHg 45%
    13:00 +16°C° 0 mm 1 mps 681 mmHg 42%
    14:00 +16°C° 0 mm 1 mps 681 mmHg 41%
    15:00 +16°C° 0 mm 1 mps 680 mmHg 41%
    16:00 +16°C° 0 mm 1 mps 680 mmHg 40%
    17:00 +15°C° 0 mm 1 mps 680 mmHg 42%
    18:00 +15°C° 0 mm 1 mps 679 mmHg 45%
    19:00 +14°C° 0 mm 1 mps 679 mmHg 48%
    20:00 +13°C° 0 mm 1 mps 678 mmHg 54%
    21:00 +11°C° 0 mm 1 mps 678 mmHg 61%
    22:00 +9°C° 0 mm 0 mps 677 mmHg 68%
    23:00 +9°C° 0 mm 1 mps 677 mmHg 69%
    Show more